Location: Cucq
(50.4773°N, 1.6202°E)
Time: 15:35:54
(UTC+00:00)

Cosmos 1943 - Pass Details

Date: 07 August 2020
Orbit: 834 x 849 km, 71.0° (Epoch: 18 September)

Event Time Altitude Azimuth Distance (km) Brightness Sun altitude
Rises 03:03:31 0° 330° (NNW) 3,395 6.6 -12.0°
Reaches altitude 10° 03:05:58 10° 333° (NNW) 2,456 5.8 -11.7°
Maximum altitude 03:11:37 77° 59° (ENE) 862 3.4 -11.0°
Drops below altitude 10° 03:17:13 10° 146° (SE) 2,444 5.5 -10.4°
Sets 03:19:40 0° 148° (SSE) 3,376 6.2 -10.1°
